Weather History for KCKC - July, 2013

Change the Weather History Date:

Monday, July 15, 2013

  Actual Average Record
Temperature  
Mean Temperature 66 °F -  
Max Temperature 71 °F 71 °F 89 °F (2006)
Min Temperature 60 °F 51 °F 44 °F (2014)
Growing Degree Days 16 (Base 50)    
Moisture  
Dew Point 61 °F    
Average Humidity 82    
Maximum Humidity 94    
Minimum Humidity 69    
Precipitation  
Precipitation 0.09 in - - ()
Sea Level Pressure  
Sea Level Pressure 30.29 in    
Wind  
Wind Speed 1 mph (SSE)    
Max Wind Speed 5 mph    
Max Gust Speed -    
Visibility 8 miles    
Events Rain    
Averages and records for this station are not official NWS values.
T = Trace of Precipitation, MM = Missing Value Source: NWS Daily Summary

Daily Weather History Graph

Daily Weather History Graph

Search for Another Location

Airport or City:

Trip Planner

Search our weather history database for the weather conditions in past years. The results will help you decide how hot, cold, wet, or windy it might be!

Date:

Astronomy

Jul. 15, 2013 Rise Set
Actual Time 5:18 AM CDT 8:55 PM CDT
Civil Twilight 4:39 AM CDT 9:34 PM CDT
Nautical Twilight 3:47 AM CDT 10:26 PM CDT
Astronomical Twilight 2:34 AM CDT 11:38 PM CDT
Moon 1:15 PM CDT (7/15) No Moon Set
Length of Visible Light 16h 55m
Length of Day
15h 37m
Waxing Crescent, 45% of the Moon is Illuminated
Jul 15
Waxing Crescent
Jul 15
First Quarter
Jul 22
Full
Jul 29
Last Quarter
Aug 6
New

Hourly Weather History & Observations

Time (CDT) Temp. Dew Point Humidity Pressure Visibility Wind Dir Wind Speed Gust Speed Precip Events Conditions
12:14 AM 64.4 °F 62.6 °F 94% 30.26 in 7.0 mi Calm Calm - N/A Rain Light Rain
12:33 AM 64.4 °F 62.6 °F 94% 30.26 in 7.0 mi Calm Calm - 0.01 in Rain Light Rain
12:53 AM 64.4 °F 62.6 °F 94% 30.26 in 7.0 mi Calm Calm - 0.02 in Rain Rain
1:13 AM 64.4 °F 60.8 °F 88% 30.27 in 7.0 mi Calm Calm - 0.03 in Rain Rain
1:33 AM 64.4 °F 60.8 °F 88% 30.27 in 4.0 mi Calm Calm - 0.05 in Rain Light Rain
1:53 AM 64.4 °F 60.8 °F 88% 30.28 in 3.0 mi Calm Calm - 0.06 in Rain Light Rain
2:14 AM 64.4 °F 60.8 °F 88% 30.28 in 4.0 mi Calm Calm - 0.01 in Rain Light Rain
2:33 AM 64.4 °F 60.8 °F 88% 30.27 in 5.0 mi Calm Calm - 0.01 in   Light Drizzle
2:53 AM 64.4 °F 59.0 °F 83% 30.28 in 10.0 mi Calm Calm - 0.01 in   Overcast
3:14 AM 62.6 °F 60.8 °F 94% 30.27 in 7.0 mi Calm Calm - N/A   Overcast
3:34 AM 62.6 °F 59.0 °F 88% 30.27 in 7.0 mi Calm Calm - N/A   Mostly Cloudy
3:53 AM 62.6 °F 59.0 °F 88% 30.27 in 7.0 mi Calm Calm - N/A   Scattered Clouds
4:13 AM 62.6 °F 59.0 °F 88% 30.27 in 5.0 mi Calm Calm - N/A   Scattered Clouds
4:33 AM 62.6 °F 60.8 °F 94% 30.27 in 4.0 mi Calm Calm - N/A   Scattered Clouds
4:53 AM 62.6 °F 59.0 °F 88% 30.27 in 3.0 mi Calm Calm - N/A   Scattered Clouds
5:13 AM 62.6 °F 59.0 °F 88% 30.27 in 3.0 mi Calm Calm - N/A   Scattered Clouds
5:34 AM 62.6 °F 60.8 °F 94% 30.28 in 3.0 mi Calm Calm - N/A   Scattered Clouds
5:54 AM 62.6 °F 60.8 °F 94% 30.29 in 2.5 mi Calm Calm - N/A   Scattered Clouds
6:13 AM 62.6 °F 60.8 °F 94% 30.29 in 7.0 mi Calm Calm - N/A   Scattered Clouds
6:34 AM 64.4 °F 60.8 °F 88% 30.30 in 7.0 mi Calm Calm - N/A   Scattered Clouds
6:53 AM 64.4 °F 60.8 °F 88% 30.30 in 5.0 mi Calm Calm - N/A   Scattered Clouds
7:13 AM 64.4 °F 60.8 °F 88% 30.31 in 2.5 mi Calm Calm - N/A   Mist
7:33 AM 64.4 °F 60.8 °F 88% 30.31 in 5.0 mi Calm Calm - N/A   Scattered Clouds
7:54 AM 64.4 °F 60.8 °F 88% 30.31 in 4.0 mi Calm Calm - N/A   Overcast
8:13 AM 64.4 °F 62.6 °F 94% 30.31 in 7.0 mi Calm Calm - N/A   Mostly Cloudy
8:33 AM 66.2 °F 62.6 °F 88% 30.31 in 7.0 mi Calm Calm - N/A   Scattered Clouds
8:54 AM 66.2 °F 62.6 °F 88% 30.31 in 5.0 mi Calm Calm - N/A   Scattered Clouds
9:14 AM 66.2 °F 60.8 °F 83% 30.31 in 10.0 mi Calm Calm - N/A   Scattered Clouds
9:33 AM 66.2 °F 60.8 °F 83% 30.31 in 10.0 mi Calm Calm - N/A   Scattered Clouds
9:53 AM 66.2 °F 60.8 °F 83% 30.30 in 10.0 mi Calm Calm - N/A   Mostly Cloudy
10:14 AM 66.2 °F 60.8 °F 83% 30.31 in 10.0 mi South 3.5 mph - N/A   Scattered Clouds
10:33 AM 66.2 °F 60.8 °F 83% 30.32 in 10.0 mi SSW 4.6 mph - N/A   Scattered Clouds
10:54 AM 66.2 °F 60.8 °F 83% 30.32 in 10.0 mi Calm Calm - N/A Rain Light Rain
11:13 AM 66.2 °F 60.8 °F 83% 30.32 in 10.0 mi Calm Calm - N/A   Mostly Cloudy
11:33 AM 66.2 °F 60.8 °F 83% 30.31 in 10.0 mi Calm Calm - N/A   Scattered Clouds
11:53 AM 68.0 °F 60.8 °F 78% 30.31 in 10.0 mi Calm Calm - N/A   Mostly Cloudy
12:14 PM 69.8 °F 62.6 °F 78% 30.32 in 10.0 mi South 3.5 mph - N/A   Mostly Cloudy
12:34 PM 69.8 °F 62.6 °F 78% 30.31 in 10.0 mi SSE 3.5 mph - N/A   Scattered Clouds
12:53 PM 69.8 °F 62.6 °F 78% 30.31 in 10.0 mi South 4.6 mph - N/A   Scattered Clouds
1:14 PM 69.8 °F 62.6 °F 78% 30.31 in 10.0 mi Calm Calm - N/A   Scattered Clouds
1:33 PM 69.8 °F 60.8 °F 73% 30.31 in 10.0 mi SSW 3.5 mph - N/A   Scattered Clouds
1:53 PM 69.8 °F 60.8 °F 73% 30.31 in 10.0 mi South 3.5 mph - N/A   Clear
2:14 PM 69.8 °F 60.8 °F 73% 30.31 in 10.0 mi SSW 3.5 mph - N/A   Clear
2:33 PM 69.8 °F 60.8 °F 73% 30.31 in 10.0 mi SSW 3.5 mph - N/A   Scattered Clouds
2:54 PM 71.6 °F 60.8 °F 69% 30.30 in 10.0 mi South 4.6 mph - N/A   Scattered Clouds
3:13 PM 69.8 °F 60.8 °F 73% 30.30 in 10.0 mi South 3.5 mph - N/A   Scattered Clouds
3:34 PM 71.6 °F 60.8 °F 69% 30.30 in 10.0 mi South 3.5 mph - N/A   Scattered Clouds
3:53 PM 71.6 °F 60.8 °F 69% 30.29 in 10.0 mi SSE 3.5 mph - N/A   Scattered Clouds
4:13 PM 71.6 °F 60.8 °F 69% 30.29 in 10.0 mi Calm Calm - N/A   Scattered Clouds
4:34 PM 71.6 °F 60.8 °F 69% 30.29 in 10.0 mi South 3.5 mph - N/A   Scattered Clouds
4:53 PM 71.6 °F 60.8 °F 69% 30.28 in 10.0 mi Calm Calm - N/A   Scattered Clouds
5:13 PM 71.6 °F 60.8 °F 69% 30.28 in 10.0 mi Calm Calm - N/A   Scattered Clouds
5:34 PM 71.6 °F 60.8 °F 69% 30.28 in 10.0 mi Calm Calm - N/A   Scattered Clouds
5:53 PM 71.6 °F 60.8 °F 69% 30.28 in 10.0 mi Calm Calm - N/A   Scattered Clouds
6:13 PM 71.6 °F 62.6 °F 73% 30.27 in 10.0 mi Calm Calm - N/A   Clear
6:34 PM 71.6 °F 62.6 °F 73% 30.27 in 10.0 mi Calm Calm - N/A   Clear
6:54 PM 71.6 °F 60.8 °F 69% 30.27 in 10.0 mi Calm Calm - N/A   Clear
7:13 PM 71.6 °F 62.6 °F 73% 30.27 in 10.0 mi Calm Calm - N/A   Clear
7:34 PM 68.0 °F 62.6 °F 83% 30.27 in 10.0 mi Calm Calm - N/A   Clear
7:53 PM 66.2 °F 60.8 °F 83% 30.27 in 10.0 mi Calm Calm - N/A   Clear
8:13 PM 64.4 °F 60.8 °F 88% 30.27 in 10.0 mi Calm Calm - N/A   Clear
8:34 PM 64.4 °F 60.8 °F 88% 30.26 in 10.0 mi Calm Calm - N/A   Clear
8:53 PM 64.4 °F 59.0 °F 83% 30.27 in 10.0 mi Calm Calm - N/A   Clear
9:13 PM 64.4 °F 59.0 °F 83% 30.26 in 10.0 mi ESE 3.5 mph - N/A   Clear
9:33 PM 64.4 °F 59.0 °F 83% 30.26 in 10.0 mi ESE 3.5 mph - N/A   Clear
9:53 PM 64.4 °F 57.2 °F 77% 30.26 in 10.0 mi East 3.5 mph - N/A   Clear
10:14 PM 64.4 °F 57.2 °F 77% 30.26 in 10.0 mi East 3.5 mph - N/A   Clear
10:33 PM 64.4 °F 57.2 °F 77% 30.26 in 10.0 mi Calm Calm - N/A   Clear
10:53 PM 62.6 °F 57.2 °F 82% 30.27 in 10.0 mi Calm Calm - N/A   Clear
11:13 PM 62.6 °F 57.2 °F 82% 30.27 in 10.0 mi ENE 3.5 mph - N/A   Clear
11:33 PM 60.8 °F 57.2 °F 88% 30.27 in 7.0 mi Calm Calm - N/A   Clear
11:53 PM 60.8 °F 55.4 °F 82% 30.27 in 7.0 mi Calm Calm - N/A   Clear